Location: Aciu?a
(46.2833°N, 22.4500°E)
Time: 04:16:21
(UTC+00:00)

Cosmos 1821 Rocket - Pass Details

Date: 25 October 2021
Orbit: 944 x 1005 km, 82.9° (Epoch: 04 December)

Event Time Altitude Azimuth Distance (km) Brightness Sun altitude
Rises 15:54:10 0° 185° (S) 3,718 7.3 -5.5°
Reaches altitude 10° 15:56:41 10° 185° (S) 2,771 6.6 -5.9°
Maximum altitude 16:03:04 86° 98° (E) 1,008 4.1 -7.0°
Drops below altitude 10° 16:09:27 10° 9° (N) 2,762 6.2 -8.1°
Sets 16:11:58 0° 10° (N) 3,707 6.8 -8.5°
